TimeEST,TemperatureF,Dew PointF,Humidity,Sea Level PressureIn,VisibilityMPH,Wind Direction,Wind SpeedMPH,Gust SpeedMPH,PrecipitationIn,Events,Conditions,WindDirDegrees,DateUTC
12:53 AM,30.0,21.9,72,30.31,8.0,Calm,Calm,-,N/A,,Clear,0,2012-11-30 05:53:00
1:53 AM,27.0,21.9,81,30.33,8.0,Calm,Calm,-,N/A,,Clear,0,2012-11-30 06:53:00
2:53 AM,28.0,21.9,78,30.33,8.0,Calm,Calm,-,N/A,,Clear,0,2012-11-30 07:53:00
3:53 AM,27.0,23.0,85,30.32,7.0,WSW,3.5,-,N/A,,Clear,250,2012-11-30 08:53:00
4:53 AM,28.0,23.0,81,30.32,8.0,Calm,Calm,-,N/A,,Clear,0,2012-11-30 09:53:00
5:53 AM,26.1,21.9,84,30.33,7.0,North,4.6,-,N/A,,Clear,10,2012-11-30 10:53:00
7:53 AM,27.0,24.1,89,30.37,5.0,Calm,Calm,-,N/A,,Scattered Clouds,0,2012-11-30 12:53:00
8:53 AM,33.1,28.0,82,30.37,6.0,Calm,Calm,-,N/A,,Haze,0,2012-11-30 13:53:00
9:53 AM,39.0,28.9,67,30.39,6.0,Calm,Calm,-,N/A,,Haze,0,2012-11-30 14:53:00
10:53 AM,42.1,28.0,58,30.37,8.0,Calm,Calm,-,N/A,,Mostly Cloudy,0,2012-11-30 15:53:00
11:53 AM,45.0,28.0,52,30.35,10.0,East,5.8,-,N/A,,Scattered Clouds,80,2012-11-30 16:53:00
12:53 PM,45.0,26.1,48,30.35,10.0,East,5.8,-,N/A,,Overcast,100,2012-11-30 17:53:00
1:53 PM,45.0,28.0,52,30.35,9.0,East,6.9,-,N/A,,Overcast,80,2012-11-30 18:53:00
2:53 PM,45.0,28.0,52,30.35,9.0,NE,4.6,-,N/A,,Overcast,50,2012-11-30 19:53:00
3:53 PM,44.1,28.0,53,30.34,8.0,ENE,4.6,-,N/A,,Mostly Cloudy,60,2012-11-30 20:53:00
4:53 PM,42.1,30.0,62,30.35,9.0,East,5.8,-,N/A,,Clear,80,2012-11-30 21:53:00
5:53 PM,41.0,30.9,67,30.36,9.0,ENE,5.8,-,N/A,,Clear,60,2012-11-30 22:53:00
6:53 PM,41.0,32.0,70,30.37,9.0,ENE,8.1,-,N/A,,Partly Cloudy,70,2012-11-30 23:53:00
7:53 PM,41.0,37.0,86,30.39,8.0,East,5.8,-,N/A,,Scattered Clouds,80,2012-12-01 00:53:00
8:53 PM,39.0,36.0,89,30.38,7.0,NE,4.6,-,N/A,,Clear,50,2012-12-01 01:53:00
9:27 PM,39.2,37.4,93,30.40,6.0,ENE,5.8,-,N/A,,Mostly Cloudy,60,2012-12-01 02:27:00
9:39 PM,39.2,37.4,93,30.39,7.0,East,8.1,-,N/A,,Overcast,80,2012-12-01 02:39:00
9:53 PM,41.0,37.9,89,30.38,8.0,East,9.2,-,N/A,,Overcast,90,2012-12-01 02:53:00
10:12 PM,41.0,37.4,87,30.39,9.0,East,10.4,-,N/A,,Scattered Clouds,90,2012-12-01 03:12:00
10:53 PM,39.9,37.0,89,30.39,9.0,East,9.2,-,N/A,,Overcast,80,2012-12-01 03:53:00
11:53 PM,39.9,35.1,83,30.40,10.0,East,11.5,-,N/A,,Mostly Cloudy,80,2012-12-01 04:53:00